Content
SEND FEEDBACK

Daily
Averages
Monthly
Summary
United States of America

CRESCENT CITY, CALIFORNIA


Home > North America > United States > California
Elevation: 56 feet     Latitude: 41 46N     Longitude: 124 14W

WEATHER
 
SELECT A DAY
Number of Records: 276,081;   Date Range: 1/1/95 - 12/27/14
 
SHARE

PRINT THIS DATA

[ ← Previous Day ]
WEATHER ALMANAC - FEBRUARY 3, 2013
[ Next Day → ]
[ °C ]   °F
Weather ElementAverageHighLow
Temperature46.5 °F52 °F (1:56 pm)41 °F (7:49 am)
Dewpoint41.6 °F44.6 °F (1:24 am)37.4 °F (5:23 am)
Humidity83.2 %93 % (7:49 am)71 % (10:56 am)
Barometer30.29 in30.34 in (1:24 am)30.23 in (11:56 pm)
Wind Speed4.1 mph10.4 mph (1:32 pm)
Weather ElementAverage
Visibility8 mi
Wind DirectionSSE (152.4 °)

Weather ElementTotal
Precipitation---
Heating Degree Days18.5 (Base 65)
Averaged from 41 records on February 3, 2013
WEATHER CONDITIONS BREAKOUT
WIND DIRECTION BREAKOUT
WEATHER BY HOUR - FEBRUARY 3, 2013
[ °C ]   °F
Local TimeTemperatureDewpointHumidityBarometerVisibilityWind DirectionWind SpeedGust SpeedPrecipitationEventsConditions
1:24 AM48.2 °F44.6 °F87 %30.34 in2.5 miNNE (20°)4.6 mphOvercast
1:33 AM48.2 °F44.6 °F87 %30.34 in3.0 miNNE (20°)4.6 mphOvercast
1:56 AM48.0 °F44.1 °F86 %30.34 in4.0 miNE (40°)5.8 mphOvercast
2:56 AM48.0 °F43.0 °F83 %30.31 in10.0 miEast (80°)5.8 mphOvercast
3:56 AM48.0 °F43.0 °F83 %30.29 in10.0 miCalmOvercast
4:42 AM44.6 °F39.2 °F81 %30.28 in10.0 miCalmScattered Clouds
4:56 AM43.0 °F39.0 °F86 %30.29 in10.0 miCalmClear
5:23 AM42.8 °F37.4 °F81 %30.29 in4.0 miNNW (330°)4.6 mphScattered Clouds
5:28 AM42.8 °F37.4 °F81 %30.30 in2.5 miNorth (350°)5.8 mphMostly Cloudy
5:34 AM42.8 °F39.2 °F87 %30.30 in3.0 miNNE (20°)4.6 mphScattered Clouds
5:56 AM42.1 °F39.0 °F89 %30.30 in10.0 miNE (50°)5.8 mphClear
6:23 AM44.6 °F39.2 °F81 %30.30 in10.0 miNE (40°)5.8 mphMostly Cloudy
6:56 AM44.1 °F41.0 °F89 %30.29 in10.0 miENE (70°)4.6 mphOvercast
7:20 AM42.8 °F39.2 °F87 %30.29 in10.0 miNNE (30°)3.5 mphScattered Clouds
7:49 AM41.0 °F39.2 °F93 %30.29 in10.0 miEast (80°)3.5 mphMostly Cloudy
7:56 AM43.0 °F39.9 °F89 %30.30 in10.0 miCalmMostly Cloudy
8:18 AM44.6 °F41.0 °F87 %30.29 in10.0 miEast (80°)4.6 mphScattered Clouds
8:56 AM46.9 °F43.0 °F86 %30.30 in10.0 miCalmClear
9:40 AM48.2 °F44.6 °F87 %30.32 in4.0 miNNW (340°)4.6 mphHaze
9:56 AM48.9 °F43.0 °F80 %30.32 in5.0 miNNW (330°)5.8 mphHaze
10:56 AM51.1 °F42.1 °F71 %30.33 in10.0 miNNW (330°)4.6 mphOvercast
11:40 AM51.8 °F42.8 °F71 %30.33 in10.0 miNNW (330°)8.1 mphScattered Clouds
11:56 AM51.1 °F43.0 °F74 %30.32 in10.0 miNNW (340°)5.8 mphMostly Cloudy
12:07 PM51.8 °F42.8 °F71 %30.31 in10.0 miNNW (330°)5.8 mphScattered Clouds
12:49 PM51.8 °F42.8 °F71 %30.30 in10.0 miNW (320°)8.1 mphMostly Cloudy
12:56 PM51.1 °F43.0 °F74 %30.30 in10.0 miNW (320°)6.9 mphMostly Cloudy
1:32 PM51.8 °F42.8 °F71 %30.29 in10.0 miNW (320°)10.4 mphScattered Clouds
1:56 PM52.0 °F43.0 °F71 %30.30 in10.0 miNW (320°)10.4 mphPartly Cloudy
2:56 PM50.0 °F42.1 °F74 %30.28 in10.0 miNNW (330°)6.9 mphClear
3:56 PM50.0 °F42.1 °F74 %30.26 in10.0 miNNW (330°)6.9 mphClear
4:56 PM48.9 °F42.1 °F77 %30.26 in7.0 miNNW (330°)4.6 mphClear
5:56 PM45.0 °F39.9 °F82 %30.26 in5.0 miNW (320°)4.6 mphHaze
6:56 PM46.0 °F42.1 °F86 %30.27 in8.0 miNW (320°)5.8 mphClear
7:56 PM46.0 °F43.0 °F89 %30.27 in6.0 miCalmClear
8:48 PM42.8 °F41.0 °F93 %30.26 in7.0 miCalmMostly Cloudy
8:56 PM44.1 °F42.1 °F93 %30.26 in7.0 miCalmMostly Cloudy
9:56 PM45.0 °F43.0 °F93 %30.26 in9.0 miCalmOvercast
10:24 PM44.6 °F42.8 °F93 %30.25 in9.0 miSE (130°)3.5 mphScattered Clouds
10:36 PM44.6 °F42.8 °F93 %30.25 in9.0 miCalmMostly Cloudy
10:56 PM44.1 °F41.0 °F89 %30.24 in9.0 miCalmOvercast
11:56 PM42.1 °F39.9 °F92 %30.23 in6.0 miCalmOvercast
Hourly data recorded from KCEC, located miles away from Crescent City, California







STORIES FROM OUR PARTNERS